Date,TemperatureHighF,TemperatureAvgF,TemperatureLowF,DewpointHighF,DewpointAvgF,DewpointLowF,HumidityHigh,HumidityAvg,HumidityLow,PressureMaxIn,PressureMinIn,WindSpeedMaxMPH,WindSpeedAvgMPH,GustSpeedMaxMPH,PrecipitationSumIn
2013-2-1,69.4,56.0,40.3,48.8,42.1,36.1,85,61,45,29.82,29.71,5,1,5,0.00
2013-2-2,63.0,49.6,41.2,50.8,44.1,37.1,96,82,60,29.91,29.79,5,0,6,0.00
2013-2-3,64.9,51.4,40.8,50.4,44.3,37.4,95,78,50,29.85,29.74,6,0,6,0.00
2013-2-4,58.3,47.2,40.5,49.3,43.3,36.6,96,87,69,29.76,29.68,6,0,6,0.00
2013-2-5,66.7,51.6,42.1,49.5,44.5,36.9,95,78,48,29.76,29.65,5,0,5,0.00
2013-2-6,63.7,47.4,34.0,45.3,37.7,30.8,93,71,44,29.79,29.71,5,0,6,0.00
2013-2-7,59.5,49.0,39.2,48.5,39.3,32.8,95,72,38,29.76,29.59,10,1,10,0.04
2013-2-8,62.8,46.7,34.5,41.2,34.6,31.6,92,66,34,29.62,29.53,3,0,3,0.00
2013-2-9,66.6,47.4,33.6,36.8,30.1,24.7,78,54,27,29.68,29.59,6,0,6,0.00
2013-2-10,66.9,45.7,30.9,42.1,32.6,24.9,81,62,34,29.71,29.59,6,1,6,0.00
2013-2-11,72.0,50.8,35.2,41.1,33.8,28.5,84,57,26,29.82,29.68,6,1,6,0.00
2013-2-12,65.7,48.4,35.2,45.4,38.7,32.0,89,72,42,29.94,29.82,6,1,6,0.00
2013-2-13,68.9,42.1,33.6,46.5,35.7,30.1,90,80,39,29.94,29.79,6,0,6,0.00
2013-2-14,73.2,57.9,43.5,48.9,40.5,36.3,76,54,34,29.82,29.76,6,1,6,0.00
2013-2-15,73.9,52.8,35.6,47.0,39.4,31.8,89,64,34,29.88,29.79,6,0,6,0.00
2013-2-16,73.4,52.2,38.3,48.8,40.6,34.8,90,68,32,29.85,29.65,6,0,6,0.00
2013-2-17,67.6,49.4,37.6,46.3,38.4,33.9,93,69,35,29.68,29.59,6,1,6,0.00
2013-2-18,58.8,45.0,37.6,44.8,38.3,31.8,92,78,54,29.65,29.56,6,0,6,0.00
2013-2-19,56.1,45.8,35.6,44.7,33.7,29.0,88,63,47,29.47,29.35,4,0,5,0.00
2013-2-20,64.2,40.8,29.8,40.1,31.1,25.9,89,71,34,29.68,29.47,4,0,4,0.00
2013-2-21,68.2,51.3,38.8,38.1,34.0,30.6,76,55,26,29.79,29.65,5,0,6,0.00
2013-2-22,67.6,50.6,35.4,42.8,37.8,30.5,86,64,33,29.85,29.76,6,1,7,0.00
2013-2-23,65.3,52.3,44.1,42.0,33.6,29.0,81,52,28,29.88,29.76,5,0,5,0.00
2013-2-24,72.3,52.5,40.6,36.0,31.8,29.0,68,48,23,29.88,29.76,9,0,9,0.00
2013-2-25,72.5,50.7,35.1,42.9,34.5,29.3,83,58,22,29.85,29.76,6,0,6,0.00
2013-2-26,75.0,53.2,40.5,37.2,32.6,28.5,73,49,22,29.82,29.74,6,0,8,0.00
2013-2-27,72.3,51.7,33.4,45.2,36.1,27.6,83,59,30,29.97,29.79,7,1,7,0.00
2013-2-28,74.7,58.4,45.3,51.9,47.1,41.0,87,68,44,30.06,29.94,6,1,6,0.00